NASA419 KTTS-KTTS

Flight info

Callsign NASA419
Flight time 0h 8m
Altitude 1000
Route VFR
Aircraft UH1/L-SDGRY/C

Departure

Time 2026-05-08 22:10
Airport Space Florida Launch and Landing Facility (KTTS)

Arrival

Time 2026-05-08 22:18
Airport Space Florida Launch and Landing Facility (KTTS)
Time Latitude Longitude Altitude Speed Heading
2026-05-08 21:15 28.59675 -80.67615 18 ft 0 kts 285°
2026-05-08 21:30 28.59657 -80.67618 18 ft 0 kts 112°
2026-05-08 21:31 28.59674 -80.67616 18 ft 0 kts 285°
2026-05-08 21:58 28.59675 -80.67621 48 ft 0 kts 284°
2026-05-08 21:58 28.59675 -80.67628 93 ft 2 kts 285°
2026-05-08 21:58 28.59672 -80.67627 100 ft 1 kts 285°
2026-05-08 21:58 28.59687 -80.67615 118 ft 12 kts 312°
2026-05-08 21:59 28.59775 -80.67574 203 ft 18 kts 344°
2026-05-08 21:59 28.59986 -80.67494 179 ft 47 kts 20°
2026-05-08 21:59 28.60333 -80.67268 205 ft 65 kts 33°
2026-05-08 21:59 28.60730 -80.66970 240 ft 72 kts 27°
2026-05-08 22:00 28.61181 -80.66630 232 ft 83 kts 38°
2026-05-08 22:00 28.61595 -80.66196 247 ft 80 kts 49°
2026-05-08 22:00 28.62115 -80.65964 322 ft 93 kts 356°
2026-05-08 22:00 28.62803 -80.65923 394 ft 101 kts
2026-05-08 22:01 28.63545 -80.65792 233 ft 110 kts 13°
2026-05-08 22:01 28.64236 -80.65518 266 ft 107 kts 22°
2026-05-08 22:01 28.64848 -80.65084 287 ft 102 kts 36°
2026-05-08 22:01 28.65226 -80.64471 336 ft 93 kts 70°
2026-05-08 22:02 28.65381 -80.63794 462 ft 83 kts 73°
2026-05-08 22:02 28.65432 -80.63156 424 ft 80 kts 103°
2026-05-08 22:02 28.64979 -80.62783 392 ft 87 kts 142°
2026-05-08 22:02 28.64421 -80.62420 400 ft 97 kts 137°
2026-05-08 22:03 28.63862 -80.61970 497 ft 100 kts 136°
2026-05-08 22:03 28.63277 -80.61544 452 ft 99 kts 137°
2026-05-08 22:03 28.62621 -80.61270 461 ft 105 kts 169°
2026-05-08 22:03 28.61970 -80.61631 412 ft 105 kts 233°
2026-05-08 22:04 28.61925 -80.62381 517 ft 98 kts 302°
2026-05-08 22:04 28.62454 -80.62853 582 ft 103 kts 345°
2026-05-08 22:04 28.63206 -80.62730 530 ft 117 kts 20°
2026-05-08 22:04 28.63983 -80.62437 514 ft 118 kts
2026-05-08 22:05 28.64783 -80.62719 587 ft 121 kts 329°
2026-05-08 22:05 28.65464 -80.63268 593 ft 118 kts 326°
2026-05-08 22:05 28.66148 -80.63304 494 ft 94 kts 73°
2026-05-08 22:05 28.65752 -80.62980 460 ft 97 kts 174°
2026-05-08 22:06 28.65067 -80.62905 346 ft 97 kts 151°
2026-05-08 22:06 28.64528 -80.62506 327 ft 93 kts 144°
2026-05-08 22:06 28.63954 -80.62115 361 ft 95 kts 142°
2026-05-08 22:06 28.63388 -80.61688 352 ft 98 kts 136°
2026-05-08 22:07 28.62886 -80.61211 367 ft 94 kts 130°
2026-05-08 22:07 28.62383 -80.60724 354 ft 96 kts 138°
2026-05-08 22:07 28.61806 -80.60352 381 ft 96 kts 144°
2026-05-08 22:07 28.61243 -80.59940 379 ft 94 kts 140°
2026-05-08 22:08 28.60680 -80.59575 416 ft 94 kts 158°
2026-05-08 22:08 28.59998 -80.59592 401 ft 104 kts 184°
2026-05-08 22:08 28.59544 -80.60127 502 ft 98 kts 254°
2026-05-08 22:08 28.59701 -80.60894 575 ft 105 kts 293°
2026-05-08 22:09 28.60136 -80.61606 506 ft 110 kts 295°
2026-05-08 22:09 28.60176 -80.62399 499 ft 97 kts 244°
2026-05-08 22:09 28.59797 -80.63017 455 ft 93 kts 206°
2026-05-08 22:09 28.59274 -80.63510 504 ft 106 kts 205°
2026-05-08 22:10 28.58667 -80.64104 484 ft 113 kts 211°
2026-05-08 22:10 28.58184 -80.64780 564 ft 112 kts 234°
2026-05-08 22:10 28.58232 -80.65555 708 ft 97 kts 306°
2026-05-08 22:10 28.58794 -80.65974 763 ft 100 kts 332°
2026-05-08 22:11 28.59420 -80.66420 771 ft 112 kts 329°
2026-05-08 22:11 28.60096 -80.66875 740 ft 114 kts 332°
2026-05-08 22:11 28.60814 -80.67278 731 ft 111 kts 340°
2026-05-08 22:11 28.61540 -80.67553 737 ft 113 kts 349°
2026-05-08 22:12 28.62245 -80.67407 716 ft 102 kts 44°
2026-05-08 22:12 28.62297 -80.66739 790 ft 92 kts 119°
2026-05-08 22:12 28.61746 -80.66346 834 ft 99 kts 142°
2026-05-08 22:12 28.61085 -80.66069 838 ft 103 kts 149°
2026-05-08 22:13 28.60341 -80.65964 728 ft 112 kts 172°
2026-05-08 22:13 28.59556 -80.66067 623 ft 113 kts 174°
2026-05-08 22:13 28.59047 -80.66081 601 ft 110 kts 164°
2026-05-08 22:13 28.58374 -80.65762 541 ft 101 kts 129°
2026-05-08 22:14 28.58028 -80.65145 540 ft 87 kts 100°
2026-05-08 22:14 28.58156 -80.64554 567 ft 85 kts 40°
2026-05-08 22:14 28.58738 -80.64402 559 ft 92 kts 349°
2026-05-08 22:14 28.59350 -80.64725 545 ft 98 kts 331°
2026-05-08 22:15 28.59965 -80.65113 528 ft 104 kts 331°
2026-05-08 22:15 28.60550 -80.65564 611 ft 100 kts 317°
2026-05-08 22:15 28.60996 -80.66183 670 ft 103 kts 300°
2026-05-08 22:15 28.61414 -80.66841 716 ft 102 kts 301°
2026-05-08 22:16 28.61953 -80.67317 750 ft 91 kts 335°
2026-05-08 22:16 28.62547 -80.67612 719 ft 94 kts 335°
2026-05-08 22:16 28.63042 -80.67538 565 ft 61 kts 80°
2026-05-08 22:16 28.62709 -80.67283 558 ft 71 kts 158°
2026-05-08 22:17 28.62186 -80.67284 508 ft 83 kts 172°
2026-05-08 22:17 28.61635 -80.67270 573 ft 76 kts 162°
2026-05-08 22:17 28.61061 -80.67279 669 ft 91 kts 170°
2026-05-08 22:17 28.60443 -80.67125 781 ft 92 kts 146°
2026-05-08 22:18 28.59890 -80.66757 835 ft 89 kts 130°
2026-05-08 22:18 28.59406 -80.66318 912 ft 95 kts 132°
2026-05-08 22:18 28.59016 -80.65793 1062 ft 64 kts 68°
2026-05-08 22:18 28.59067 -80.65569 1059 ft 14 kts 30°
2026-05-08 22:19 28.59104 -80.65524 991 ft 3 kts 71°
2026-05-08 22:19 28.59093 -80.65523 993 ft 0 kts 75°
2026-05-08 22:19 28.59090 -80.65526 1122 ft 1 kts 60°
2026-05-08 22:19 28.59087 -80.65528 1118 ft 0 kts 46°
2026-05-08 22:20 28.59083 -80.65537 1216 ft 2 kts 351°
2026-05-08 22:20 28.59084 -80.65541 1224 ft 1 kts 341°
2026-05-08 22:20 28.59082 -80.65549 1217 ft 2 kts 340°
2026-05-08 22:20 28.59082 -80.65558 1098 ft 0 kts 344°
2026-05-08 22:21 28.59082 -80.65564 1039 ft 1 kts 337°
2026-05-08 22:21 28.59078 -80.65576 1015 ft 1 kts 336°
2026-05-08 22:21 28.59079 -80.65580 903 ft 0 kts 344°
2026-05-08 22:21 28.59081 -80.65585 797 ft 1 kts 346°
2026-05-08 22:22 28.59082 -80.65593 746 ft 1 kts 346°
2026-05-08 22:22 28.59079 -80.65598 854 ft 1 kts 343°
2026-05-08 22:22 28.59074 -80.65603 947 ft 1 kts 344°
2026-05-08 22:22 28.59073 -80.65607 924 ft 1 kts 348°
2026-05-08 22:23 28.59070 -80.65614 972 ft 1 kts 344°
2026-05-08 22:23 28.59068 -80.65618 999 ft 1 kts 341°
2026-05-08 22:23 28.59066 -80.65627 998 ft 1 kts 341°
2026-05-08 22:23 28.59062 -80.65638 1020 ft 2 kts 342°
2026-05-08 22:24 28.59058 -80.65651 1070 ft 2 kts 343°
2026-05-08 22:24 28.59055 -80.65659 1088 ft 1 kts 342°
2026-05-08 22:24 28.59053 -80.65664 1059 ft 0 kts 342°
2026-05-08 22:24 28.59052 -80.65671 1032 ft 1 kts 339°
2026-05-08 22:25 28.59050 -80.65681 992 ft 1 kts 340°
2026-05-08 22:25 28.59051 -80.65681 908 ft 0 kts 338°
2026-05-08 22:25 28.59052 -80.65684 834 ft 1 kts 336°
2026-05-08 22:25 28.59052 -80.65693 753 ft 1 kts 337°
2026-05-08 22:26 28.59050 -80.65709 696 ft 3 kts 335°
2026-05-08 22:26 28.59047 -80.65724 651 ft 2 kts 322°
2026-05-08 22:26 28.59041 -80.65734 786 ft 2 kts 328°
2026-05-08 22:26 28.59033 -80.65742 947 ft 1 kts 332°
2026-05-08 22:27 28.59026 -80.65750 1069 ft 2 kts 336°
2026-05-08 22:27 28.59034 -80.65770 1073 ft 21 kts 342°
2026-05-08 22:27 28.59457 -80.65977 1019 ft 99 kts 328°
2026-05-08 22:27 28.60138 -80.66456 934 ft 122 kts 326°
2026-05-08 22:28 28.60857 -80.66950 927 ft 113 kts 330°
2026-05-08 22:28 28.61525 -80.67059 803 ft 89 kts 43°
2026-05-08 22:28 28.61515 -80.66608 913 ft 76 kts 154°
2026-05-08 22:28 28.60955 -80.66771 858 ft 91 kts 191°
2026-05-08 22:29 28.60397 -80.67109 788 ft 87 kts 192°
2026-05-08 22:29 28.59822 -80.67172 708 ft 80 kts 148°
2026-05-08 22:29 28.59341 -80.66768 674 ft 94 kts 128°
2026-05-08 22:29 28.58811 -80.66353 691 ft 93 kts 135°
2026-05-08 22:30 28.58282 -80.65912 635 ft 93 kts 122°
2026-05-08 22:30 28.58080 -80.65297 688 ft 81 kts 86°
2026-05-08 22:30 28.58155 -80.64666 771 ft 82 kts 68°
2026-05-08 22:30 28.58546 -80.64248 838 ft 86 kts 15°
2026-05-08 22:31 28.59181 -80.64281 833 ft 97 kts 354°
2026-05-08 22:31 28.59871 -80.64415 819 ft 105 kts 355°
2026-05-08 22:31 28.60606 -80.64605 917 ft 103 kts 344°
2026-05-08 22:31 28.61217 -80.65058 846 ft 104 kts 317°
2026-05-08 22:32 28.61711 -80.65650 772 ft 103 kts 305°
2026-05-08 22:32 28.62059 -80.66337 780 ft 98 kts 267°
2026-05-08 22:32 28.61754 -80.67114 814 ft 123 kts 217°
2026-05-08 22:32 28.61042 -80.67638 768 ft 120 kts 184°
2026-05-08 22:33 28.60286 -80.67725 820 ft 101 kts 149°
2026-05-08 22:33 28.59611 -80.67348 733 ft 120 kts 141°
2026-05-08 22:33 28.58818 -80.66963 686 ft 123 kts 150°
2026-05-08 22:33 28.58045 -80.66625 694 ft 114 kts 151°
2026-05-08 22:34 28.57339 -80.66337 936 ft 103 kts 161°
2026-05-08 22:34 28.56695 -80.66170 1285 ft 88 kts 149°
2026-05-08 22:34 28.56094 -80.65804 1160 ft 108 kts 128°
2026-05-08 22:34 28.55828 -80.65010 1090 ft 115 kts 81°
2026-05-08 22:35 28.56379 -80.64263 693 ft 141 kts 25°
2026-05-08 22:35 28.57236 -80.63785 505 ft 135 kts 33°
2026-05-08 22:35 28.58055 -80.63316 540 ft 129 kts 20°
2026-05-08 22:35 28.58941 -80.63247 695 ft 123 kts
2026-05-08 22:36 28.59658 -80.63254 1049 ft 80 kts
2026-05-08 22:36 28.60130 -80.63330 1140 ft 77 kts 11°
2026-05-08 22:36 28.60801 -80.63222 927 ft 110 kts 22°
2026-05-08 22:36 28.61608 -80.62995 844 ft 131 kts
2026-05-08 22:37 28.62515 -80.63335 728 ft 142 kts 320°
2026-05-08 22:37 28.63059 -80.64239 662 ft 141 kts 281°
2026-05-08 22:37 28.62947 -80.65296 627 ft 137 kts 232°
2026-05-08 22:37 28.62212 -80.65834 576 ft 125 kts 184°
2026-05-08 22:38 28.61396 -80.65601 559 ft 123 kts 148°
2026-05-08 22:38 28.60610 -80.65178 508 ft 122 kts 141°
2026-05-08 22:38 28.59869 -80.64788 643 ft 116 kts 145°
2026-05-08 22:38 28.59123 -80.64419 593 ft 116 kts 143°
2026-05-08 22:39 28.58398 -80.64047 488 ft 114 kts 143°
2026-05-08 22:39 28.57708 -80.63620 471 ft 111 kts 140°
2026-05-08 22:39 28.57030 -80.63148 544 ft 117 kts 139°
2026-05-08 22:39 28.56216 -80.63158 550 ft 130 kts 189°
2026-05-08 22:40 28.55371 -80.63297 602 ft 109 kts 145°
2026-05-08 22:40 28.55165 -80.62617 637 ft 101 kts 63°
2026-05-08 22:40 28.55722 -80.62042 523 ft 102 kts 25°
2026-05-08 22:40 28.56368 -80.61900 728 ft 97 kts 355°
2026-05-08 22:41 28.57063 -80.62089 772 ft 111 kts 331°
2026-05-08 22:41 28.57785 -80.62582 678 ft 128 kts 326°
2026-05-08 22:41 28.58522 -80.63129 674 ft 124 kts 332°
2026-05-08 22:41 28.59300 -80.63551 624 ft 127 kts 338°
2026-05-08 22:42 28.59983 -80.64148 734 ft 123 kts 295°
2026-05-08 22:42 28.60071 -80.65057 837 ft 118 kts 247°
2026-05-08 22:42 28.59990 -80.65991 876 ft 114 kts 260°
2026-05-08 22:42 28.59574 -80.66623 894 ft 106 kts 187°
2026-05-08 22:43 28.58836 -80.66855 742 ft 113 kts 173°
2026-05-08 22:43 28.58114 -80.66872 669 ft 101 kts 195°
2026-05-08 22:43 28.58160 -80.67391 552 ft 88 kts 349°
2026-05-08 22:43 28.58672 -80.67602 423 ft 63 kts 332°
2026-05-08 22:44 28.58913 -80.67755 318 ft 26 kts 336°
2026-05-08 22:44 28.59077 -80.67865 279 ft 32 kts 333°
2026-05-08 22:44 28.59312 -80.68019 258 ft 39 kts 333°
2026-05-08 22:44 28.59514 -80.68152 192 ft 30 kts 334°
2026-05-08 22:45 28.59665 -80.68261 106 ft 20 kts 338°
2026-05-08 22:45 28.59745 -80.68296 83 ft 8 kts 24°
2026-05-08 22:45 28.59753 -80.68254 68 ft 11 kts 97°
2026-05-08 22:45 28.59744 -80.68160 47 ft 18 kts 87°
2026-05-08 22:46 28.59816 -80.68068 40 ft 10 kts 39°
2026-05-08 22:46 28.59828 -80.68069 87 ft 2 kts 23°
2026-05-08 22:46 28.59922 -80.68004 40 ft 18 kts 42°
2026-05-08 22:46 28.60028 -80.67952 33 ft 11 kts 308°
2026-05-08 22:47 28.60029 -80.67993 31 ft 2 kts 148°
2026-05-08 22:47 28.60018 -80.67995 30 ft 2 kts 134°
2026-05-08 22:47 28.60047 -80.67971 37 ft 3 kts 109°
2026-05-08 22:47 28.59967 -80.67953 44 ft 15 kts 131°
2026-05-08 22:48 28.59951 -80.67913 31 ft 2 kts 66°
2026-05-08 22:48 28.59951 -80.67905 28 ft 2 kts 355°
2026-05-08 22:48 28.59956 -80.67905 36 ft 2 kts 243°
2026-05-08 22:48 28.59956 -80.67899 28 ft 1 kts 242°